Location: Madrid
(40.4000°N, 3.6830°W)
Time: 16:31:54
(UTC+02:00)

ISS - Pass Details

Date: 05 March 2021
Orbit: 418 x 422 km, 51.6° (Epoch: 16 April)

Event Time Altitude Azimuth Distance (km) Brightness Sun altitude
Exits shadow 06:26:06 - 332° (NNW) 1,576 -1.1 -15.3°
Reaches altitude 10° 06:26:25 10° 336° (NNW) 1,500 -1.1 -15.2°
Maximum altitude 06:28:23 15° 12° (NNE) 1,251 -1.2 -14.9°
Drops below altitude 10° 06:30:21 10° 48° (NE) 1,499 -0.2 -14.5°
Sets 06:33:10 0° 74° (ENE) 2,362 1.8 -14.0°
